Terminal Aerodrome Forecast
Issued by NWS

Home | Current Version | Previous Version | Text Only | Print | Product List | Glossary Off
Versions: 1 2 3 4 5 6 7 8 9 10 11 12 13 14 15 16 17 18 19 20 21 22 23 24 25 26 27 28 29 30 31 32 33 34 35 36 37 38

784
FTUS43 KLOT 301130
TAFMDW
TAF
KMDW 301130Z 3012/3112 05010KT P6SM VCSH OVC010
      TEMPO 3012/3013 05010G18KT 4SM SHRA
     FM301400 05010KT P6SM VCSH BKN025 BKN040
     FM301600 06010KT 6SM SHRA VCTS SCT025 BKN035CB
      TEMPO 3016/3018 4SM SHRA OVC025
     FM302000 06010KT P6SM BKN040
     FM310200 04006KT 6SM BR SCT040=

USA.gov is the U.S. government's official web portal to all federal, state and local government web resources and services.